Total_Precipitation_Accumulation
0.03 0.06 0.11 0.15 0.15 0.12 0.08 0.05 0.08 0.11 0.20 0.23 0.32 0.39 0.44 0.44 0.43 0.39 0.38 0.33 0.32 0.35 0.51 0.56 0.62 0.63 0.60 0.63 0.77 0.91 1.00 1.09 1.24 1.36 1.37 1.26 1.20 1.25 1.31 1.38 1.44 1.59 1.58 1.54
0.03 0.06 0.10 0.12 0.14 0.10 0.07 0.05 0.06 0.08 0.14 0.20 0.33 0.35 0.40 0.37 0.35 0.39 0.40 0.36 0.34 0.44 0.57 0.58 0.56 0.57 0.57 0.61 0.70 0.75 0.85 0.94 1.09 1.26 1.34 1.31 1.28 1.37 1.48 1.55 1.67 1.74 1.68 1.65
0.04 0.07 0.09 0.16 0.13 0.09 0.08 0.07 0.07 0.10 0.15 0.19 0.27 0.39 0.46 0.49 0.53 0.52 0.40 0.35 0.37 0.43 0.50 0.58 0.51 0.47 0.53 0.59 0.70 0.80 0.93 1.03 1.09 1.21 1.31 1.33 1.33 1.43 1.54 1.57 1.58 1.65 1.65 1.62
0.09 0.10 0.15 0.16 0.12 0.11 0.11 0.12 0.15 0.19 0.21 0.26 0.28 0.37 0.47 0.50 0.49 0.48 0.47 0.53 0.59 0.67 0.68 0.66 0.60 0.59 0.67 0.72 0.79 0.85 0.91 1.01 1.08 1.19 1.31 1.42 1.57 1.65 1.70 1.75 1.76 1.76 1.70 1.66
0.16 0.15 0.18 0.20 0.18 0.18 0.21 0.25 0.27 0.34 0.39 0.38 0.37 0.38 0.47 0.55 0.54 0.58 0.56 0.58 0.67 0.76 0.80 0.72 0.72 0.74 0.83 0.88 0.98 1.04 1.05 1.15 1.22 1.30 1.42 1.51 1.58 1.70 1.81 1.89 1.87 1.86 1.84 1.86
0.24 0.26 0.28 0.28 0.29 0.24 0.27 0.50 0.46 0.49 0.53 0.52 0.53 0.67 0.78 0.79 0.70 0.66 0.66 0.67 0.74 0.75 0.77 0.84 0.86 0.90 0.98 1.06 1.17 1.24 1.24 1.29 1.34 1.47 1.56 1.57 1.57 1.65 1.69 1.75 1.76 1.78 1.75 1.82
0.35 0.34 0.33 0.32 0.32 0.32 0.57 0.83 0.83 0.82 0.78 0.68 0.76 0.82 0.78 0.71 0.75 0.72 0.76 0.84 0.81 0.81 0.87 0.89 0.87 0.91 1.02 1.16 1.27 1.33 1.34 1.35 1.41 1.50 1.65 1.68 1.69 1.64 1.58 1.59 1.62 1.67 1.70 1.76
0.55 0.64 0.66 0.46 0.48 0.68 0.87 0.85 1.00 0.91 0.81 0.78 0.77 0.75 0.69 0.70 0.80 0.88 0.92 0.98 0.96 0.94 0.92 0.91 0.95 1.01 1.10 1.22 1.27 1.29 1.27 1.30 1.36 1.41 1.43 1.44 1.56 1.61 1.60 1.58 1.60 1.66 1.74 1.76
0.76 0.83 0.75 0.64 0.65 0.74 0.71 0.73 0.85 0.83 0.73 0.74 0.72 0.69 0.65 0.69 0.76 0.80 0.84 0.90 0.92 0.95 0.97 1.00 1.06 1.14 1.25 1.28 1.32 1.29 1.34 1.42 1.49 1.50 1.49 1.47 1.49 1.52 1.51 1.47 1.39 1.38 1.50 1.56
1.02 1.04 0.90 0.76 0.65 0.65 0.66 0.67 0.70 0.78 0.82 0.80 0.75 0.71 0.70 0.71 0.75 0.85 0.90 0.91 0.92 0.93 0.98 1.09 1.19 1.29 1.30 1.24 1.31 1.45 1.49 1.47 1.45 1.47 1.43 1.41 1.46 1.42 1.38 1.36 1.31 1.25 1.38 1.50
1.47 1.52 1.31 1.13 0.95 0.84 0.80 0.78 0.79 0.85 0.91 0.97 0.96 0.93 0.89 0.82 0.79 0.81 0.88 0.88 0.88 0.94 1.01 1.10 1.16 1.24 1.32 1.33 1.36 1.43 1.37 1.27 1.28 1.29 1.23 1.16 1.24 1.31 1.22 1.21 1.26 1.24 1.37 1.56
1.77 1.62 1.57 1.44 1.17 1.00 0.96 1.01 0.94 0.95 0.97 0.97 0.95 0.95 0.94 0.91 0.80 0.74 0.75 0.83 0.89 0.91 0.98 1.07 1.11 1.14 1.16 1.19 1.27 1.33 1.33 1.23 1.15 1.09 1.07 1.07 1.11 1.14 1.12 0.99 0.98 0.94 1.01 1.13
1.45 1.42 1.43 1.35 1.20 1.04 1.03 1.02 1.01 0.99 0.99 0.97 0.93 0.84 0.80 0.83 0.85 0.80 0.80 0.84 0.91 0.97 1.00 1.02 1.02 1.04 1.04 1.09 1.21 1.30 1.33 1.28 1.14 0.99 0.92 0.91 0.95 1.01 1.03 0.96 0.77 0.72 0.71 0.70
1.46 1.40 1.42 1.33 1.28 1.13 1.12 1.04 0.99 0.92 0.91 0.90 0.93 0.89 0.80 0.78 0.87 0.92 0.94 0.98 1.07 1.11 1.05 0.99 0.96 0.96 0.95 0.97 1.03 1.08 1.12 1.16 1.08 0.97 0.92 0.87 0.85 0.84 0.84 0.91 0.93 0.81 0.68 0.59
1.27 1.28 1.39 1.34 1.28 1.22 1.21 1.12 1.00 0.87 0.84 0.90 0.95 0.94 0.90 0.89 0.96 1.09 1.11 1.14 1.17 1.14 1.04 0.95 0.91 0.92 0.94 0.97 0.96 0.94 1.00 1.03 0.97 0.94 0.94 0.93 0.93 0.88 0.83 0.85 0.93 0.99 0.92 0.70
1.12 1.20 1.20 1.27 1.37 1.26 1.16 1.10 1.05 0.96 0.88 0.87 0.90 0.90 0.87 0.85 0.91 1.01 1.08 1.17 1.24 1.21 1.10 1.00 0.90 0.80 0.78 0.89 0.94 0.90 0.91 1.00 0.94 0.86 0.86 0.90 0.91 0.87 0.88 0.95 1.03 1.14 1.15 0.90
1.16 1.20 1.15 1.16 1.26 1.25 1.16 1.06 1.04 1.01 0.96 0.99 0.99 0.93 0.88 0.86 0.92 1.01 1.02 1.01 1.01 0.99 0.96 0.92 0.82 0.70 0.67 0.74 0.79 0.82 0.82 0.86 0.88 0.83 0.85 0.89 0.91 0.92 0.94 1.03 1.13 1.20 1.15 0.94
1.08 1.00 0.97 0.99 1.04 1.06 1.04 1.02 1.01 0.96 0.94 0.96 0.97 0.92 0.85 0.86 0.95 1.07 1.09 1.05 0.93 0.83 0.80 0.76 0.68 0.62 0.63 0.66 0.70 0.75 0.77 0.81 0.81 0.82 0.83 0.84 0.87 0.95 1.02 1.13 1.23 1.27 1.14 0.97
1.11 1.00 0.91 0.88 0.83 0.83 0.90 0.95 0.95 0.89 0.85 0.85 0.87 0.85 0.79 0.76 0.86 0.97 1.01 1.10 1.13 1.03 0.86 0.72 0.67 0.60 0.61 0.64 0.65 0.68 0.71 0.75 0.80 0.85 0.85 0.81 0.83 0.88 0.92 1.00 1.12 1.17 1.07 1.00
1.14 1.09 0.94 0.84 0.80 0.75 0.75 0.75 0.80 0.82 0.78 0.72 0.72 0.73 0.71 0.72 0.85 1.00 1.05 1.13 1.21 1.14 0.98 0.80 0.57 0.50 0.47 0.49 0.53 0.51 0.52 0.52 0.53 0.57 0.60 0.64 0.68 0.71 0.72 0.77 0.89 0.96 0.91 0.94
1.12 1.06 0.95 0.82 0.82 0.78 0.72 0.66 0.68 0.73 0.71 0.71 0.74 0.71 0.68 0.71 0.77 0.94 1.20 1.31 1.16 1.00 0.92 0.89 0.61 0.43 0.37 0.41 0.49 0.47 0.46 0.46 0.46 0.49 0.51 0.54 0.57 0.62 0.68 0.74 0.78 0.81 0.85 0.89
1.04 0.99 0.90 0.83 0.78 0.80 0.77 0.69 0.65 0.67 0.67 0.67 0.65 0.65 0.66 0.66 0.69 0.81 0.97 1.15 1.07 0.96 0.78 0.73 0.62 0.45 0.38 0.34 0.33 0.39 0.44 0.48 0.50 0.54 0.56 0.58 0.61 0.65 0.68 0.69 0.70 0.73 0.78 0.84
1.04 0.97 0.87 0.79 0.75 0.76 0.73 0.71 0.65 0.62 0.62 0.60 0.59 0.61 0.66 0.66 0.65 0.78 0.86 0.79 0.76 0.77 0.62 0.58 0.57 0.49 0.40 0.33 0.33 0.35 0.39 0.45 0.49 0.51 0.51 0.53 0.58 0.61 0.65 0.67 0.68 0.70 0.78 0.82
0.97 0.98 0.92 0.87 0.76 0.69 0.71 0.70 0.63 0.60 0.58 0.59 0.60 0.61 0.66 0.66 0.60 0.58 0.63 0.68 0.71 0.70 0.59 0.58 0.52 0.43 0.38 0.37 0.40 0.42 0.43 0.45 0.48 0.48 0.48 0.51 0.57 0.63 0.71 0.76 0.78 0.76 0.77 0.76
0.90 0.85 0.84 0.84 0.78 0.68 0.64 0.62 0.62 0.63 0.61 0.60 0.59 0.61 0.60 0.59 0.59 0.58 0.57 0.59 0.63 0.61 0.56 0.58 0.55 0.51 0.45 0.46 0.50 0.51 0.50 0.51 0.52 0.51 0.52 0.55 0.61 0.69 0.73 0.76 0.75 0.72 0.70 0.69
0.76 0.73 0.75 0.73 0.68 0.65 0.61 0.61 0.64 0.64 0.63 0.63 0.63 0.63 0.57 0.55 0.58 0.63 0.68 0.67 0.63 0.61 0.55 0.52 0.50 0.53 0.51 0.54 0.58 0.60 0.58 0.57 0.56 0.54 0.56 0.61 0.67 0.72 0.70 0.63 0.61 0.60 0.58 0.55
0.69 0.68 0.69 0.68 0.68 0.63 0.59 0.58 0.65 0.73 0.73 0.68 0.69 0.69 0.67 0.69 0.71 0.72 0.71 0.70 0.67 0.62 0.56 0.51 0.47 0.43 0.45 0.49 0.52 0.55 0.56 0.56 0.54 0.56 0.59 0.62 0.62 0.59 0.54 0.49 0.50 0.48 0.45 0.45